Colby, KS

4:52 PM CDT on April 25, 2017 (GMT -0500)
Shaltz

Weather History for KCBK - May, 2014

Change the Weather History Date:

Saturday, May 24, 2014

  Actual Average (KGLD) Record (KGLD)
Temperature  
Mean Temperature 65 °F -  
Max Temperature 75 °F 73 °F 96 °F (1911)
Min Temperature 55 °F 48 °F 34 °F (2002)
Growing Degree Days 15 (Base 50)    
Moisture  
Dew Point 61 °F    
Average Humidity 90    
Maximum Humidity 100    
Minimum Humidity 61    
Precipitation  
Precipitation 0.00 in - - ()
Sea Level Pressure  
Sea Level Pressure 30.04 in    
Wind  
Wind Speed 10 mph (SE)    
Max Wind Speed 17 mph    
Max Gust Speed 32 mph    
Visibility 7 miles    
Events Fog , Rain    
Averages and records for this station are not official NWS values.
T = Trace of Precipitation, MM = Missing Value Source: NWS Daily Summary

Daily Weather History Graph

Daily Weather History Graph

Search for Another Location

Airport or City:

Trip Planner

Search our weather history database for the weather conditions in past years. The results will help you decide how hot, cold, wet, or windy it might be!

Date:

Astronomy

May. 24, 2014 Rise Set
Actual Time 6:23 AM CDT 8:59 PM CDT
Civil Twilight 5:52 AM CDT 9:30 PM CDT
Nautical Twilight 5:13 AM CDT 10:09 PM CDT
Astronomical Twilight 4:30 AM CDT 10:52 PM CDT
Moon 3:52 AM CDT (5/24) 4:59 PM CDT (5/24)
Length of Visible Light 15h 38m
Length of Day
14h 35m
Waning Crescent, 18% of the Moon is Illuminated
May 24
Waning Crescent
May 28
New
Jun 5
First Quarter
Jun 12
Full
Jun 19
Last Quarter

Hourly Weather History & Observations

Time (CDT) Temp. Dew Point Humidity Pressure Visibility Wind Dir Wind Speed Gust Speed Precip Events Conditions
12:10 AM 62.6 °F 62.6 °F 100% 30.10 in 4.0 mi SE 12.7 mph - N/A   Overcast
12:30 AM 62.6 °F 62.6 °F 100% 30.09 in 3.0 mi SSE 16.1 mph - N/A   Overcast
12:50 AM 60.8 °F 60.8 °F 100% 30.09 in 3.0 mi SSE 10.4 mph - N/A   Overcast
1:10 AM 60.8 °F 60.8 °F 100% 30.08 in 3.0 mi SSE 10.4 mph - N/A   Overcast
1:30 AM 60.8 °F 60.8 °F 100% 30.09 in 2.5 mi SSE 9.2 mph - N/A   Overcast
1:50 AM 60.8 °F 60.8 °F 100% 30.09 in 5.0 mi SSE 10.4 mph - N/A   Overcast
2:10 AM 60.8 °F 60.8 °F 100% 30.08 in 4.0 mi SSE 6.9 mph - N/A   Scattered Clouds
2:30 AM 60.8 °F 60.8 °F 100% 30.09 in 3.0 mi SSE 6.9 mph - N/A   Mostly Cloudy
2:50 AM 60.8 °F 60.8 °F 100% 30.08 in 3.0 mi SSE 9.2 mph - N/A   Overcast
3:10 AM 59.0 °F 59.0 °F 100% 30.07 in 4.0 mi SSE 6.9 mph - N/A   Mostly Cloudy
3:30 AM 59.0 °F 59.0 °F 100% 30.07 in 4.0 mi SSE 8.1 mph - N/A   Scattered Clouds
3:50 AM 59.0 °F 59.0 °F 100% 30.07 in 3.0 mi SSE 9.2 mph - N/A   Mostly Cloudy
4:10 AM 59.0 °F 59.0 °F 100% 30.07 in 2.5 mi SSE 6.9 mph - N/A   Mostly Cloudy
4:30 AM 59.0 °F 59.0 °F 100% 30.07 in 1.0 mi SSE 8.1 mph - N/A   Overcast
4:50 AM 59.0 °F 59.0 °F 100% 30.08 in 2.0 mi South 5.8 mph - N/A   Overcast
5:10 AM 59.0 °F 59.0 °F 100% 30.07 in 3.0 mi South 4.6 mph - N/A   Mostly Cloudy
5:30 AM 57.2 °F 57.2 °F 100% 30.07 in 2.5 mi South 3.5 mph - N/A   Scattered Clouds
5:50 AM 57.2 °F 57.2 °F 100% 30.07 in 2.0 mi Calm Calm - N/A   Scattered Clouds
6:10 AM 55.4 °F 55.4 °F 100% 30.06 in 0.8 mi SE 4.6 mph - N/A   Scattered Clouds
6:30 AM 55.4 °F 55.4 °F 100% 30.05 in 0.2 mi ESE 4.6 mph - N/A Fog Fog
6:50 AM 55.4 °F 55.4 °F 100% 30.06 in 0.2 mi ESE 3.5 mph - N/A Fog Fog
7:10 AM 57.2 °F 57.2 °F 100% 30.06 in 0.2 mi ESE 5.8 mph - N/A Fog Fog
7:30 AM 57.2 °F 57.2 °F 100% 30.07 in 0.2 mi SE 6.9 mph - N/A Fog Fog
7:50 AM 59.0 °F 59.0 °F 100% 30.07 in 0.2 mi SE 6.9 mph - N/A Fog Fog
8:10 AM 59.0 °F 59.0 °F 100% 30.07 in 0.2 mi SE 8.1 mph - N/A Fog Fog
8:30 AM 59.0 °F 59.0 °F 100% 30.08 in 1.0 mi SE 8.1 mph - N/A   Overcast
8:50 AM 59.0 °F 59.0 °F 100% 30.08 in 4.0 mi SE 8.1 mph - N/A   Overcast
9:10 AM 60.8 °F 60.8 °F 100% 30.08 in 5.0 mi SSE 8.1 mph - N/A   Overcast
9:30 AM 60.8 °F 60.8 °F 100% 30.09 in 5.0 mi SE 10.4 mph - N/A   Overcast
9:50 AM 60.8 °F 60.8 °F 100% 30.09 in 10.0 mi SE 8.1 mph - N/A   Overcast
10:10 AM 62.6 °F 60.8 °F 94% 30.09 in 10.0 mi ESE 8.1 mph - N/A   Overcast
10:30 AM 62.6 °F 60.8 °F 94% 30.09 in 10.0 mi SE 8.1 mph - N/A   Overcast
10:50 AM 62.6 °F 60.8 °F 94% 30.09 in 10.0 mi SE 9.2 mph - N/A   Overcast
11:10 AM 62.6 °F 60.8 °F 94% 30.09 in 10.0 mi SE 6.9 mph - N/A   Overcast
11:30 AM 62.6 °F 60.8 °F 94% 30.09 in 10.0 mi SSE 8.1 mph - N/A   Overcast
11:50 AM 62.6 °F 60.8 °F 94% 30.08 in 7.0 mi SSE 6.9 mph - N/A   Overcast
12:10 PM 64.4 °F 60.8 °F 88% 30.07 in 10.0 mi SE 6.9 mph - N/A   Overcast
12:30 PM 66.2 °F 60.8 °F 83% 30.07 in 10.0 mi ESE 9.2 mph - N/A   Overcast
12:50 PM 68.0 °F 60.8 °F 78% 30.06 in 10.0 mi East 11.5 mph - N/A   Overcast
1:10 PM 69.8 °F 62.6 °F 78% 30.06 in 10.0 mi ESE 12.7 mph 17.3 mph N/A   Overcast
1:30 PM 69.8 °F 60.8 °F 73% 30.05 in 10.0 mi ESE 10.4 mph - N/A   Overcast
1:50 PM 69.8 °F 60.8 °F 73% 30.04 in 10.0 mi East 9.2 mph - N/A   Overcast
2:10 PM 71.6 °F 60.8 °F 69% 30.03 in 10.0 mi East 15.0 mph - N/A   Mostly Cloudy
2:30 PM 71.6 °F 60.8 °F 69% 30.03 in 10.0 mi ESE 13.8 mph 19.6 mph N/A   Mostly Cloudy
2:50 PM 71.6 °F 60.8 °F 69% 30.02 in 10.0 mi East 15.0 mph - N/A   Mostly Cloudy
3:10 PM 71.6 °F 60.8 °F 69% 30.02 in 10.0 mi SE 16.1 mph - N/A   Mostly Cloudy
3:30 PM 71.6 °F 60.8 °F 69% 30.01 in 10.0 mi ESE 12.7 mph 17.3 mph N/A   Scattered Clouds
3:50 PM 73.4 °F 60.8 °F 65% 30.01 in 10.0 mi SE 10.4 mph 17.3 mph N/A   Mostly Cloudy
4:10 PM 73.4 °F 60.8 °F 65% 29.99 in 10.0 mi ESE 10.4 mph - N/A   Mostly Cloudy
4:30 PM 75.2 °F 60.8 °F 61% 29.98 in 10.0 mi SE 10.4 mph 17.3 mph N/A   Scattered Clouds
4:50 PM 73.4 °F 60.8 °F 65% 29.98 in 10.0 mi SE 12.7 mph 16.1 mph N/A   Clear
5:10 PM 73.4 °F 60.8 °F 65% 29.97 in 10.0 mi ESE 12.7 mph - N/A   Scattered Clouds
5:30 PM 73.4 °F 60.8 °F 65% 29.97 in 10.0 mi ESE 13.8 mph - N/A   Scattered Clouds
5:50 PM 73.4 °F 62.6 °F 69% 29.97 in 10.0 mi ESE 15.0 mph - N/A   Clear
6:10 PM 73.4 °F 62.6 °F 69% 29.96 in 10.0 mi East 16.1 mph - N/A   Scattered Clouds
6:30 PM 73.4 °F 62.6 °F 69% 29.96 in 10.0 mi ESE 16.1 mph - N/A   Mostly Cloudy
6:50 PM 73.4 °F 62.6 °F 69% 29.95 in 10.0 mi East 16.1 mph 21.9 mph N/A   Mostly Cloudy
7:10 PM 71.6 °F 62.6 °F 73% 29.95 in 10.0 mi ESE 13.8 mph - N/A   Scattered Clouds
7:30 PM 69.8 °F 62.6 °F 78% 29.95 in 10.0 mi ESE 10.4 mph - N/A   Scattered Clouds
7:50 PM 69.8 °F 62.6 °F 78% 29.96 in 10.0 mi ESE 15.0 mph 18.4 mph N/A   Mostly Cloudy
8:10 PM 69.8 °F 64.4 °F 83% 29.98 in 10.0 mi ESE 13.8 mph - N/A Rain Light Rain
8:30 PM 60.8 °F 60.8 °F 100% 29.99 in 1.5 mi South 17.3 mph 32.2 mph N/A Rain Heavy Rain
8:50 PM 64.4 °F 64.4 °F 100% 29.98 in 10.0 mi SE 9.2 mph - N/A Rain Light Rain
9:10 PM 62.6 °F 60.8 °F 94% 29.98 in 10.0 mi ESE 10.4 mph - N/A Rain Light Rain
9:30 PM 64.4 °F 64.4 °F 100% 29.98 in 10.0 mi East 10.4 mph - N/A   Overcast
9:50 PM 64.4 °F 64.4 °F 100% 29.98 in 10.0 mi East 9.2 mph - N/A   Overcast
10:10 PM 64.4 °F 64.4 °F 100% 29.99 in 10.0 mi East 9.2 mph - N/A   Overcast
10:30 PM 64.4 °F 64.4 °F 100% 29.99 in 10.0 mi East 9.2 mph - N/A   Mostly Cloudy
10:50 PM 64.4 °F 64.4 °F 100% 29.99 in 10.0 mi ESE 9.2 mph - N/A   Scattered Clouds
11:10 PM 64.4 °F 64.4 °F 100% 29.99 in 10.0 mi ESE 9.2 mph - N/A   Mostly Cloudy
11:30 PM 64.4 °F 64.4 °F 100% 29.99 in 10.0 mi East 8.1 mph - N/A   Scattered Clouds
11:50 PM 62.6 °F 62.6 °F 100% 29.99 in 10.0 mi ESE 9.2 mph - N/A   Scattered Clouds